Flight Track Log - Related Links

Times and Time Zones

All times are in EDT time to prevent confusion due to time zone crossing. See the SWA1771 flight status page for this flight to view local times or setup timezone preferences in your user account.

Time Position Orientation Groundspeed Altitude Reporting Facility
EDT Latitude Longitude Course Direction KTS MPH feet Rate Location/Type
Sat 01:08:48 PM 44.8364 -93.2108 149° Southeast 163 188 2,800  Level Minneapolis Center
Sat 01:09:49 PM 44.7875 -93.1567 142° Southeast 229 264 5,100 2,976 Climbing Minneapolis Center
Sat 01:10:51 PM 44.7239 -93.0833 141° Southeast 284 327 8,900 3,805 Climbing Minneapolis Center
Sat 01:11:52 PM 44.6283 -93.0283 158° South 307 353 12,900 3,639 Climbing Minneapolis Center
Sat 01:12:53 PM 44.5333 -93.0011 168° South 344 396 16,300 3,366 Climbing Minneapolis Center
Sat 01:13:55 PM 44.4328 -92.9722 168° South 364 419 19,800 3,122 Climbing Minneapolis Center
Sat 01:14:00 PM 44.1960 -92.8828 149° Southeast  Level FlightAware Approximate
Sat 01:14:56 PM 44.3283 -92.9419 168° South 380 437 22,700  Level Minneapolis Center
Sat 01:15:58 PM 44.2197 -92.8958 163° South 411 473 25,200 2,439 Climbing Minneapolis Center
Sat 01:16:59 PM 44.1128 -92.8222 154° Southeast 427 491 27,700 1,854 Climbing Minneapolis Center
Sat 01:18:01 PM 44.0061 -92.7483 154° Southeast 428 493 29,000 1,073 Climbing Minneapolis Center
Sat 01:19:02 PM 43.8978 -92.6744 154° Southeast 431 496 29,900 976 Climbing Minneapolis Center
Sat 01:20:04 PM 43.7850 -92.5983 154° Southeast 430 495 31,000 537 Climbing Minneapolis Center
Sat 01:21:05 PM 43.6872 -92.5061 146° Southeast 430 495 31,000  Level Minneapolis Center
Sat 01:22:06 PM 43.5894 -92.4136 146° Southeast 430 495 31,000  Level Minneapolis Center
Sat 01:23:08 PM 43.4706 -92.3056 147° Southeast 430 495 31,000  Level Minneapolis Center
Sat 01:24:10 PM 43.3731 -92.2139 146° Southeast 430 495 31,000  Level Minneapolis Center
Sat 01:25:11 PM 43.2753 -92.1225 146° Southeast 430 495 31,000  Level Minneapolis Center
Sat 01:26:12 PM 43.1778 -92.0317 146° Southeast 429 494 31,000  Level Minneapolis Center
Sat 01:27:14 PM 43.0800 -91.9422 146° Southeast 429 494 31,000  Level Minneapolis Center
Sat 01:28:15 PM 42.9819 -91.8511 146° Southeast 429 494 31,000  Level Minneapolis Center
Sat 01:29:17 PM 42.8678 -91.7378 144° Southeast 429 494 31,000 -293 Level Minneapolis Center
Sat 01:30:18 PM 42.7844 -91.6114 132° Southeast 430 495 30,400 -683 Descending Minneapolis Center
Sat 01:31:20 PM 42.7039 -91.4986 134° Southeast 434 499 29,600 -683 Descending Minneapolis Center
Sat 01:32:21 PM 42.6097 -91.3606 133° Southeast 442 509 29,000 -293 Descending Minneapolis Center
Sat 01:33:23 PM 42.5258 -91.2397 133° Southeast 443 510 29,000  Level Minneapolis Center
Sat 01:34:24 PM 42.4422 -91.1194 133° Southeast 443 510 29,000 -634 Level Minneapolis Center
Sat 01:35:26 PM 42.3525 -90.9867 132° Southeast 443 510 27,700 -2,014 Descending Minneapolis Center
Sat 01:36:50 PM 42.2436 -90.8331 134° Southeast 441 507 24,100 -1,521 Descending Chicago Center
Sat 01:37:52 PM 42.1431 -90.7542 150° Southeast 423 487 24,000 -49 Descending Chicago Center
Sat 01:38:53 PM 42.0403 -90.6828 153° Southeast 421 484 24,000 -293 Level Chicago Center
Sat 01:39:55 PM 41.9167 -90.5933 152° Southeast 421 484 23,400 -484 Descending Chicago Center
Sat 01:40:57 PM 41.8142 -90.5192 152° Southeast 421 484 23,000 -195 Descending Chicago Center
Sat 01:41:58 PM 41.7200 -90.4406 148° Southeast 418 481 23,000  Level Chicago Center
Sat 01:43:00 PM 41.6206 -90.3611 149° Southeast 418 481 23,000  Level Chicago Center
Sat 01:44:02 PM 41.5339 -90.2556 138° Southeast 419 482 23,000 -145 Level Chicago Center
Sat 01:45:04 PM 41.4472 -90.1375 134° Southeast 436 502 22,700 -1,171 Descending Chicago Center
Sat 01:46:05 PM 41.3550 -89.9722 127° Southeast 465 535 20,600 -1,512 Descending Chicago Center
Sat 01:47:07 PM 41.3544 -89.8028 90° East 460 529 19,600 -968 Descending Chicago Center
Sat 01:48:09 PM 41.3589 -89.6339 88° East 459 528 18,600 -1,065 Descending Chicago Center
Sat 01:49:11 PM 41.3611 -89.4689 89° East 446 513 17,400 -1,452 Descending Chicago Center
Sat 01:50:13 PM 41.3639 -89.3136 89° East 419 482 15,600 -2,146 Descending Chicago Center
Sat 01:51:14 PM 41.3653 -89.1586 89° East 404 465 13,000 -2,293 Descending Chicago Center
Sat 01:52:16 PM 41.3683 -89.0161 88° East 391 450 10,900 -1,355 Descending Chicago Center
Sat 01:53:18 PM 41.3700 -88.8861 89° East 357 411 10,200 -927 Descending Chicago Center
Sat 01:54:19 PM 41.3711 -88.7542 89° East 316 364 9,000 -1,366 Descending Chicago Center
Sat 01:55:21 PM 41.3733 -88.6292 89° East 315 362 7,400 -1,403 Descending Chicago Center
Sat 01:56:23 PM 41.3744 -88.5164 89° East 307 353 6,100 -677 Descending Chicago Center
Sat 01:57:25 PM 41.4228 -88.4258 55° Northeast 303 349 6,000 -290 Descending Chicago Center
Sat 01:58:27 PM 41.4794 -88.3328 51° Northeast 300 345 5,500 -829 Descending Chicago Center
Sat 01:59:28 PM 41.5267 -88.2453 54° Northeast 293 337 4,300 -780 Descending Chicago Center
Sat 02:00:30 PM 41.5681 -88.1556 58° Northeast 284 327 3,900 -145 Descending Chicago Center
Sat 02:01:32 PM 41.6122 -88.0614 58° Northeast 279 321 4,000 48 Climbing Chicago Center
Sat 02:02:34 PM 41.6517 -87.9742 59° Northeast 274 315 4,000  Level Chicago Center
Sat 02:03:35 PM 41.6867 -87.8981 58° Northeast 244 281 4,000  Level Chicago Center
Sat 02:04:37 PM 41.7189 -87.8278 58° Northeast 204 235 4,000  Level Chicago Center
Sat 02:05:39 PM 41.7486 -87.7636 58° Northeast 202 232 4,000  Level Chicago Center
Sat 02:06:41 PM 41.7564 -87.6947 81° East 189 217 4,000 -390 Level Chicago Center
Sat 02:07:42 PM 41.7825 -87.6369 59° Northeast 194 223 3,200 -878 Descending Chicago Center
Sat 02:08:44 PM 41.8286 -87.6583 341° North 180 207 2,200 -823 Descending Chicago Center
Sat 02:09:46 PM 41.8228 -87.7056 261° West 129 148 1,500 -683 Descending Chicago Center
Sat 02:10:47 PM 41.7950 -87.7386 222° Southwest 125 144 800 -439 Descending Chicago Center
Sat 02:11:49 PM 41.7728 -87.7681 225° Southwest 125 144 600 -194 Descending Chicago Center

Login

Don't have an account? Register now (free) for customized features, flight alerts, and more!